Hamilton, OH

10:55 PM EDT on May 24, 2017 (GMT -0400)
Butler County Regional

Weather History for KHAO - April, 2014

Change the Weather History Date:

Monday, April 7, 2014

  Actual Average (KLUK) Record (KLUK)
Temperature  
Mean Temperature 52 °F -  
Max Temperature 57 °F 63 °F 86 °F (2001)
Min Temperature 46 °F 38 °F 22 °F (1982)
Degree Days  
Heating Degree Days 14    
Growing Degree Days 2 (Base 50)    
Moisture  
Dew Point 49 °F    
Average Humidity 92    
Maximum Humidity 100    
Minimum Humidity 57    
Precipitation  
Precipitation 0.79 in - - ()
Sea Level Pressure  
Sea Level Pressure 29.58 in    
Wind  
Wind Speed 5 mph (NNE)    
Max Wind Speed 16 mph    
Max Gust Speed 23 mph    
Visibility 6 miles    
Events Rain , Thunderstorm    
Averages and records for this station are not official NWS values.
T = Trace of Precipitation, MM = Missing Value Source: NWS Daily Summary

Daily Weather History Graph

Daily Weather History Graph

Search for Another Location

Airport or City:

Trip Planner

Search our weather history database for the weather conditions in past years. The results will help you decide how hot, cold, wet, or windy it might be!

Date:

Astronomy

Apr. 07, 2014 Rise Set
Actual Time 7:13 AM EDT 8:07 PM EDT
Civil Twilight 6:45 AM EDT 8:35 PM EDT
Nautical Twilight 6:13 AM EDT 9:07 PM EDT
Astronomical Twilight 5:39 AM EDT 9:41 PM EDT
Moon 1:09 PM EDT (4/7) 2:43 AM EDT (4/7)
Length of Visible Light 13h 49m
Length of Day
12h 54m
First Quarter, 53% of the Moon is Illuminated
Apr 7
First Quarter
Apr 15
Full
Apr 22
Last Quarter
Apr 29
New
May 6
First Quarter

Hourly Weather History & Observations

Time (EDT) Temp. Windchill Dew Point Humidity Pressure Visibility Wind Dir Wind Speed Gust Speed Precip Events Conditions
12:53 AM 46.9 °F - 37.0 °F 68% 29.94 in 10.0 mi Calm Calm - N/A   Clear
1:53 AM 48.0 °F - 36.0 °F 63% 29.91 in 10.0 mi NE 3.5 mph - N/A   Clear
2:53 AM 46.9 °F - 37.9 °F 71% 29.88 in 10.0 mi Calm Calm - N/A   Clear
3:53 AM 48.0 °F - 37.0 °F 66% 29.83 in 10.0 mi Calm Calm - N/A   Clear
4:53 AM 48.9 °F - 37.9 °F 66% 29.81 in 10.0 mi Calm Calm - N/A   Overcast
5:53 AM 48.9 °F - 35.1 °F 59% 29.78 in 10.0 mi East 4.6 mph - N/A   Overcast
6:53 AM 50.0 °F - 35.1 °F 57% 29.79 in 10.0 mi Calm Calm - N/A   Overcast
7:53 AM 50.0 °F - 35.1 °F 57% 29.77 in 10.0 mi Calm Calm - N/A   Overcast
8:53 AM 52.0 °F - 39.0 °F 61% 29.73 in 10.0 mi East 6.9 mph - N/A   Overcast
9:39 AM 51.1 °F - 44.1 °F 77% 29.76 in 2.0 mi Calm Calm - 0.02 in Rain Light Rain
9:53 AM 51.1 °F - 45.0 °F 80% 29.74 in 1.8 mi Calm Calm - 0.04 in Rain Light Rain
10:05 AM 50.0 °F - 46.9 °F 89% 29.73 in 2.0 mi North 4.6 mph - 0.02 in Rain Light Rain
10:34 AM 48.0 °F - 46.0 °F 93% 29.69 in 1.5 mi North 8.1 mph - 0.06 in Rain Rain
10:50 AM 48.2 °F - 46.4 °F 93% 29.69 in 2.0 mi North 4.6 mph - 0.10 in Rain Rain
10:51 AM 48.0 °F - 46.9 °F 96% 29.70 in 2.0 mi North 5.8 mph - 0.10 in Rain Rain
10:57 AM 48.0 °F - 46.9 °F 96% 29.69 in 1.8 mi NNE 3.5 mph - 0.02 in Rain Rain
11:06 AM 48.0 °F - 46.9 °F 96% 29.66 in 2.0 mi NNE 9.2 mph - 0.04 in Rain Rain
11:29 AM 48.9 °F - 48.0 °F 97% 29.68 in 1.5 mi North 5.8 mph - 0.08 in Rain Light Rain
11:44 AM 50.0 °F - 48.0 °F 93% 29.66 in 1.2 mi NNE 8.1 mph - 0.14 in Rain Heavy Rain
11:50 AM 50.0 °F - 48.2 °F 94% 29.66 in 2.0 mi NNE 6.9 mph - 0.15 in Rain Light Rain
11:53 AM 50.0 °F - 48.0 °F 93% 29.67 in 2.5 mi NNE 6.9 mph - 0.15 in Rain Light Rain
11:59 AM 50.0 °F - 48.0 °F 93% 29.66 in 3.0 mi NNE 8.1 mph - 0.00 in Rain , Thunderstorm Light Rain
12:21 PM 50.0 °F - 48.0 °F 93% 29.65 in 2.0 mi NNE 9.2 mph - 0.05 in Rain , Thunderstorm Rain
12:30 PM 50.0 °F - 48.0 °F 93% 29.64 in 2.0 mi NNE 6.9 mph - 0.08 in Rain Rain
12:43 PM 50.0 °F - 48.9 °F 96% 29.60 in 2.0 mi ENE 9.2 mph - 0.12 in Rain Rain
12:53 PM 50.0 °F - 50.0 °F 100% 29.58 in 2.0 mi NE 10.4 mph - 0.16 in Rain Rain
1:02 PM 51.1 °F - 51.1 °F 100% 29.59 in 3.0 mi ENE 9.2 mph - 0.01 in Rain Light Rain
1:09 PM 51.1 °F - 51.1 °F 100% 29.58 in 4.0 mi East 9.2 mph - 0.03 in Rain , Thunderstorm Rain
1:24 PM 51.1 °F - 51.1 °F 100% 29.53 in 5.0 mi ENE 11.5 mph - 0.05 in Rain Light Rain
1:53 PM 53.1 °F - 53.1 °F 100% 29.55 in 2.5 mi ESE 8.1 mph - 0.14 in Rain Rain
2:13 PM 53.1 °F - 53.1 °F 100% 29.55 in 3.0 mi East 6.9 mph - 0.06 in Rain Rain
2:24 PM 53.1 °F - 53.1 °F 100% 29.55 in 4.0 mi East 6.9 mph - 0.10 in Rain Rain
2:34 PM 53.1 °F - 53.1 °F 100% 29.53 in 4.0 mi East 9.2 mph - 0.11 in Rain Light Rain
2:53 PM 53.1 °F - 53.1 °F 100% 29.51 in 10.0 mi East 9.2 mph - 0.11 in   Overcast
3:05 PM 53.1 °F - 53.1 °F 100% 29.50 in 10.0 mi East 10.4 mph - N/A   Overcast
3:43 PM 53.1 °F - 53.1 °F 100% 29.48 in 2.5 mi SE 5.8 mph - 0.00 in Rain Light Rain
4:35 PM 54.0 °F - 54.0 °F 100% 29.43 in 2.0 mi ESE 10.4 mph - 0.00 in   Overcast
4:53 PM 54.0 °F - 54.0 °F 100% 29.42 in 5.0 mi ESE 8.1 mph - 0.00 in   Overcast
5:53 PM 55.9 °F - 55.9 °F 100% 29.38 in 10.0 mi ESE 8.1 mph - N/A   Overcast
6:21 PM 55.9 °F - 55.9 °F 100% 29.37 in 10.0 mi SSE 6.9 mph - N/A   Overcast
6:53 PM 57.0 °F - 57.0 °F 100% 29.37 in 10.0 mi Calm Calm - 0.00 in Rain Light Rain
7:03 PM 55.9 °F - 55.9 °F 100% 29.38 in 2.5 mi West 5.8 mph - 0.02 in Rain Rain
7:13 PM 55.9 °F - 55.9 °F 100% 29.38 in 3.0 mi WSW 3.5 mph - 0.03 in Rain , Thunderstorm Light Rain
7:28 PM 55.9 °F - 55.9 °F 100% 29.38 in 2.5 mi WSW 4.6 mph - 0.04 in Rain Light Rain
7:51 PM 55.4 °F - 55.4 °F 100% 29.38 in 5.0 mi West 5.8 mph - 0.05 in Rain Light Rain
7:53 PM 55.0 °F - 55.0 °F 100% 29.38 in 6.0 mi Variable 5.8 mph - 0.05 in   Overcast
8:20 PM 55.0 °F - 55.0 °F 100% 29.39 in 7.0 mi WSW 4.6 mph - N/A   Overcast
8:53 PM 55.9 °F - 55.9 °F 100% 29.40 in 10.0 mi SW 5.8 mph - N/A   Overcast
9:14 PM 55.9 °F - 55.9 °F 100% 29.40 in 9.0 mi SSW 6.9 mph - 0.00 in   Overcast
9:36 PM 55.9 °F - 55.9 °F 100% 29.41 in 8.0 mi SSW 12.7 mph 19.6 mph 0.00 in Rain Light Rain
9:53 PM 55.0 °F - 55.0 °F 100% 29.42 in 6.0 mi SW 9.2 mph 23.0 mph 0.02 in Rain Light Rain
10:05 PM 55.0 °F - 55.0 °F 100% 29.43 in 10.0 mi West 11.5 mph 18.4 mph 0.00 in Rain Light Rain
10:12 PM 52.0 °F - 51.1 °F 97% 29.43 in 10.0 mi NW 13.8 mph - 0.01 in Rain Light Rain
10:24 PM 51.1 °F - 51.1 °F 100% 29.44 in 7.0 mi WNW 13.8 mph 19.6 mph 0.01 in Rain Light Rain
10:35 PM 48.9 °F - 48.0 °F 97% 29.45 in 5.0 mi NW 16.1 mph - 0.02 in Rain Light Rain
10:53 PM 48.0 °F - 45.0 °F 89% 29.48 in 9.0 mi NW 13.8 mph - 0.02 in Rain Light Rain
11:02 PM 48.0 °F - 45.0 °F 89% 29.48 in 10.0 mi NW 12.7 mph - 0.00 in   Overcast
11:53 PM 46.0 °F 40.6 °F 45.0 °F 96% 29.53 in 5.0 mi West 11.5 mph 17.3 mph 0.00 in   Overcast